contact:dominique.lefevre@mio.osupytheas.fr, maurice.libes@osupytheas.fr, didier.mallarino@osupytheas.fr
Project:EMSO http://www.emso-fr.org/EMSO-France
Depth: 2436.0 m
Title:EMSO Ligure Ouest : Data MII capteur MICROCAT
DateTime_Computer,Latitude,Longitude,Temperature,Conductivity,Pressure,DateTime_Instrument
DateTime_Computer,Latitude,Longitude,degC,S m-1,dbar,DateTime_Instrument
2024-03-31T00:02:58Z,42.805,6.029,13.3048,4.60134,2471.01,2024-3-31T02:05:36Z
2024-03-31T00:06:01Z,42.805,6.029,13.3045,4.60133,2470.973,2024-3-31T02:08:39Z
2024-03-31T00:09:04Z,42.805,6.029,13.3046,4.60134,2470.973,2024-3-31T02:11:42Z
2024-03-31T00:12:07Z,42.805,6.029,13.3045,4.60133,2470.95,2024-3-31T02:14:46Z
2024-03-31T00:15:10Z,42.805,6.029,13.3044,4.60135,2470.997,2024-3-31T02:17:49Z
2024-03-31T00:18:13Z,42.805,6.029,13.3045,4.60133,2470.95,2024-3-31T02:20:52Z
2024-03-31T00:21:16Z,42.805,6.029,13.3049,4.60134,2470.973,2024-3-31T02:23:55Z
2024-03-31T00:24:19Z,42.805,6.029,13.3046,4.60135,2471.01,2024-3-31T02:26:58Z
2024-03-31T00:27:22Z,42.805,6.029,13.3045,4.60137,2470.973,2024-3-31T02:30:01Z
2024-03-31T00:30:25Z,42.805,6.029,13.3047,4.60133,2470.973,2024-3-31T02:33:04Z
2024-03-31T00:33:28Z,42.805,6.029,13.3047,4.60135,2470.973,2024-3-31T02:36:07Z
2024-03-31T00:36:31Z,42.805,6.029,13.3047,4.60133,2470.94,2024-3-31T02:39:10Z
2024-03-31T00:39:35Z,42.805,6.029,13.3044,4.60135,2470.973,2024-3-31T02:42:13Z
2024-03-31T00:42:38Z,42.805,6.029,13.3043,4.60132,2470.987,2024-3-31T02:45:16Z
2024-03-31T00:45:41Z,42.805,6.029,13.3046,4.60132,2470.95,2024-3-31T02:48:19Z
2024-03-31T00:48:44Z,42.805,6.029,13.3044,4.60134,2470.973,2024-3-31T02:51:23Z
2024-03-31T00:51:47Z,42.805,6.029,13.3045,4.60134,2470.94,2024-3-31T02:54:26Z
2024-03-31T00:54:50Z,42.805,6.029,13.3043,4.60137,2470.95,2024-3-31T02:57:29Z
2024-03-31T00:57:53Z,42.805,6.029,13.3050,4.60135,2470.987,2024-3-31T03:00:32Z
2024-03-31T01:00:56Z,42.805,6.029,13.3043,4.60134,2470.95,2024-3-31T03:03:35Z
2024-03-31T01:03:59Z,42.805,6.029,13.3044,4.60135,2470.927,2024-3-31T03:06:38Z
2024-03-31T01:07:02Z,42.805,6.029,13.3043,4.60132,2470.95,2024-3-31T03:09:41Z
2024-03-31T01:10:05Z,42.805,6.029,13.3046,4.60135,2470.964,2024-3-31T03:12:44Z
2024-03-31T01:13:08Z,42.805,6.029,13.3046,4.60134,2470.95,2024-3-31T03:15:47Z
2024-03-31T01:16:11Z,42.805,6.029,13.3046,4.60134,2470.964,2024-3-31T03:18:50Z
2024-03-31T01:19:15Z,42.805,6.029,13.3045,4.60134,2470.95,2024-3-31T03:21:53Z
2024-03-31T01:22:18Z,42.805,6.029,13.3048,4.60135,2470.964,2024-3-31T03:24:56Z
2024-03-31T01:25:21Z,42.805,6.029,13.3042,4.60134,2470.973,2024-3-31T03:27:59Z
2024-03-31T01:28:24Z,42.805,6.029,13.3046,4.60135,2470.997,2024-3-31T03:31:03Z
2024-03-31T01:31:27Z,42.805,6.029,13.3047,4.60135,2470.964,2024-3-31T03:34:06Z
2024-03-31T01:34:30Z,42.805,6.029,13.3049,4.60134,2470.94,2024-3-31T03:37:09Z
2024-03-31T01:37:33Z,42.805,6.029,13.3043,4.60135,2470.95,2024-3-31T03:40:12Z
2024-03-31T01:40:36Z,42.805,6.029,13.3044,4.60134,2470.94,2024-3-31T03:43:15Z
2024-03-31T01:43:39Z,42.805,6.029,13.3045,4.60135,2470.94,2024-3-31T03:46:18Z
2024-03-31T01:46:42Z,42.805,6.029,13.3045,4.60135,2470.964,2024-3-31T03:49:21Z
2024-03-31T01:49:45Z,42.805,6.029,13.3045,4.60135,2470.964,2024-3-31T03:52:24Z
2024-03-31T01:52:48Z,42.805,6.029,13.3046,4.60135,2470.927,2024-3-31T03:55:27Z
2024-03-31T01:55:52Z,42.805,6.029,13.3048,4.60135,2470.927,2024-3-31T03:58:30Z
2024-03-31T01:58:55Z,42.805,6.029,13.3043,4.60137,2470.904,2024-3-31T04:01:33Z
2024-03-31T02:01:58Z,42.805,6.029,13.3041,4.60135,2470.927,2024-3-31T04:04:36Z
2024-03-31T02:05:01Z,42.805,6.029,13.3047,4.60133,2470.927,2024-3-31T04:07:40Z
2024-03-31T02:08:04Z,42.805,6.029,13.3045,4.60135,2470.95,2024-3-31T04:10:43Z
2024-03-31T02:11:07Z,42.805,6.029,13.3043,4.60135,2470.927,2024-3-31T04:13:46Z
2024-03-31T02:14:10Z,42.805,6.029,13.3043,4.60135,2470.95,2024-3-31T04:16:49Z
2024-03-31T02:17:13Z,42.805,6.029,13.3047,4.60135,2470.927,2024-3-31T04:19:52Z
2024-03-31T02:20:16Z,42.805,6.029,13.3046,4.60137,2470.904,2024-3-31T04:22:55Z
2024-03-31T02:23:19Z,42.805,6.029,13.3044,4.60137,2470.95,2024-3-31T04:25:58Z
2024-03-31T02:26:22Z,42.805,6.029,13.3045,4.60135,2470.95,2024-3-31T04:29:01Z
2024-03-31T02:29:25Z,42.805,6.029,13.3049,4.60137,2470.927,2024-3-31T04:32:04Z
2024-03-31T02:32:28Z,42.805,6.029,13.3043,4.60133,2470.927,2024-3-31T04:35:07Z
2024-03-31T02:35:32Z,42.805,6.029,13.3046,4.60135,2470.927,2024-3-31T04:38:10Z
2024-03-31T02:38:35Z,42.805,6.029,13.3042,4.60134,2470.927,2024-3-31T04:41:13Z
2024-03-31T02:41:38Z,42.805,6.029,13.3045,4.60135,2470.94,2024-3-31T04:44:17Z
2024-03-31T02:44:41Z,42.805,6.029,13.3048,4.60135,2470.917,2024-3-31T04:47:20Z
2024-03-31T02:47:44Z,42.805,6.029,13.3048,4.60136,2470.94,2024-3-31T04:50:23Z
2024-03-31T02:50:47Z,42.805,6.029,13.3043,4.60136,2470.904,2024-3-31T04:53:26Z
2024-03-31T02:53:50Z,42.805,6.029,13.3043,4.60135,2470.94,2024-3-31T04:56:29Z
2024-03-31T02:56:53Z,42.805,6.029,13.3046,4.60133,2470.904,2024-3-31T04:59:32Z
2024-03-31T02:59:56Z,42.805,6.029,13.3048,4.60135,2470.904,2024-3-31T05:02:35Z
2024-03-31T03:02:59Z,42.805,6.029,13.3049,4.60135,2470.904,2024-3-31T05:05:38Z
2024-03-31T03:06:02Z,42.805,6.029,13.3046,4.60137,2470.917,2024-3-31T05:08:41Z
2024-03-31T03:09:05Z,42.805,6.029,13.3045,4.60135,2470.88,2024-3-31T05:11:44Z
2024-03-31T03:12:08Z,42.805,6.029,13.3047,4.60134,2470.94,2024-3-31T05:14:47Z
2024-03-31T03:15:12Z,42.805,6.029,13.3047,4.60135,2470.904,2024-3-31T05:17:50Z
2024-03-31T03:18:15Z,42.805,6.029,13.3048,4.60136,2470.917,2024-3-31T05:20:53Z
2024-03-31T03:21:18Z,42.805,6.029,13.3042,4.60134,2470.88,2024-3-31T05:23:57Z
2024-03-31T03:24:21Z,42.805,6.029,13.3044,4.60135,2470.927,2024-3-31T05:27:00Z
2024-03-31T03:27:24Z,42.805,6.029,13.3047,4.60135,2470.904,2024-3-31T05:30:03Z
2024-03-31T03:30:27Z,42.805,6.029,13.3047,4.60135,2470.88,2024-3-31T05:33:06Z
2024-03-31T03:33:30Z,42.805,6.029,13.3046,4.60134,2470.94,2024-3-31T05:36:09Z
2024-03-31T03:36:33Z,42.805,6.029,13.3047,4.60133,2470.917,2024-3-31T05:39:12Z
2024-03-31T03:39:36Z,42.805,6.029,13.3046,4.60134,2470.917,2024-3-31T05:42:15Z
2024-03-31T03:42:39Z,42.805,6.029,13.3049,4.60135,2470.904,2024-3-31T05:45:18Z
2024-03-31T03:45:42Z,42.805,6.029,13.3045,4.60135,2470.927,2024-3-31T05:48:21Z
2024-03-31T03:48:45Z,42.805,6.029,13.3043,4.60135,2470.904,2024-3-31T05:51:24Z
2024-03-31T03:51:49Z,42.805,6.029,13.3046,4.60137,2470.917,2024-3-31T05:54:27Z
2024-03-31T03:54:52Z,42.805,6.029,13.3048,4.60135,2470.894,2024-3-31T05:57:30Z
2024-03-31T03:57:55Z,42.805,6.029,13.3045,4.60135,2470.94,2024-3-31T06:00:34Z
2024-03-31T04:00:58Z,42.805,6.029,13.3048,4.60134,2470.927,2024-3-31T06:03:37Z
2024-03-31T04:04:01Z,42.805,6.029,13.3047,4.60135,2470.927,2024-3-31T06:06:40Z
2024-03-31T04:07:04Z,42.805,6.029,13.3048,4.60134,2470.904,2024-3-31T06:09:43Z
2024-03-31T04:10:07Z,42.805,6.029,13.3044,4.60133,2470.917,2024-3-31T06:12:46Z
2024-03-31T04:13:10Z,42.805,6.029,13.3049,4.60133,2470.94,2024-3-31T06:15:49Z
2024-03-31T04:16:13Z,42.805,6.029,13.3047,4.60135,2470.894,2024-3-31T06:18:52Z
2024-03-31T04:19:16Z,42.805,6.029,13.3046,4.60134,2470.904,2024-3-31T06:21:55Z
2024-03-31T04:22:19Z,42.805,6.029,13.3046,4.60135,2470.904,2024-3-31T06:24:58Z
2024-03-31T04:25:22Z,42.805,6.029,13.3046,4.60134,2470.927,2024-3-31T06:28:01Z
2024-03-31T04:28:26Z,42.805,6.029,13.3045,4.60133,2470.88,2024-3-31T06:31:04Z
2024-03-31T04:31:29Z,42.805,6.029,13.3050,4.60134,2470.904,2024-3-31T06:34:07Z
2024-03-31T04:34:32Z,42.805,6.029,13.3046,4.60134,2470.88,2024-3-31T06:37:10Z
2024-03-31T04:37:35Z,42.805,6.029,13.3045,4.60135,2470.847,2024-3-31T06:40:14Z
2024-03-31T04:40:38Z,42.805,6.029,13.3044,4.60135,2470.917,2024-3-31T06:43:17Z
2024-03-31T04:43:41Z,42.805,6.029,13.3046,4.60133,2470.917,2024-3-31T06:46:20Z
2024-03-31T04:46:44Z,42.805,6.029,13.3045,4.60137,2470.904,2024-3-31T06:49:23Z
2024-03-31T04:49:47Z,42.805,6.029,13.3049,4.60135,2470.88,2024-3-31T06:52:26Z
2024-03-31T04:52:50Z,42.805,6.029,13.3045,4.60135,2470.917,2024-3-31T06:55:29Z
2024-03-31T04:55:53Z,42.805,6.029,13.3047,4.60133,2470.927,2024-3-31T06:58:32Z
2024-03-31T04:58:56Z,42.805,6.029,13.3043,4.60134,2470.904,2024-3-31T07:01:35Z
2024-03-31T05:01:59Z,42.805,6.029,13.3041,4.60134,2470.904,2024-3-31T07:04:38Z
2024-03-31T05:05:03Z,42.805,6.029,13.3048,4.60134,2470.88,2024-3-31T07:07:41Z
2024-03-31T05:08:06Z,42.805,6.029,13.3046,4.60134,2470.917,2024-3-31T07:10:44Z
2024-03-31T05:11:09Z,42.805,6.029,13.3047,4.60133,2470.89,2024-3-31T07:13:47Z
2024-03-31T05:14:12Z,42.805,6.029,13.3043,4.60133,2470.904,2024-3-31T07:16:51Z
2024-03-31T05:17:15Z,42.805,6.029,13.3047,4.60134,2470.894,2024-3-31T07:19:54Z
2024-03-31T05:20:18Z,42.805,6.029,13.3045,4.60136,2470.904,2024-3-31T07:22:57Z
2024-03-31T05:23:21Z,42.805,6.029,13.3048,4.60134,2470.904,2024-3-31T07:26:00Z
2024-03-31T05:26:24Z,42.805,6.029,13.3047,4.60135,2470.917,2024-3-31T07:29:03Z
2024-03-31T05:29:27Z,42.805,6.029,13.3044,4.60134,2470.88,2024-3-31T07:32:06Z
2024-03-31T05:32:30Z,42.805,6.029,13.3048,4.60134,2470.894,2024-3-31T07:35:09Z
2024-03-31T05:35:33Z,42.805,6.029,13.3049,4.60136,2470.88,2024-3-31T07:38:12Z
2024-03-31T05:38:36Z,42.805,6.029,13.3045,4.60133,2470.857,2024-3-31T07:41:15Z
2024-03-31T05:41:39Z,42.805,6.029,13.3046,4.60134,2470.894,2024-3-31T07:44:18Z
2024-03-31T05:44:43Z,42.805,6.029,13.3044,4.60133,2470.88,2024-3-31T07:47:21Z
2024-03-31T05:47:46Z,42.805,6.029,13.3045,4.60135,2470.857,2024-3-31T07:50:24Z
2024-03-31T05:50:49Z,42.805,6.029,13.3045,4.60135,2470.88,2024-3-31T07:53:28Z
2024-03-31T05:53:52Z,42.805,6.029,13.3049,4.60134,2470.894,2024-3-31T07:56:31Z
2024-03-31T05:56:55Z,42.805,6.029,13.3046,4.60135,2470.917,2024-3-31T07:59:34Z
2024-03-31T05:59:58Z,42.805,6.029,13.3046,4.60134,2470.88,2024-3-31T08:02:37Z
2024-03-31T06:03:01Z,42.805,6.029,13.3048,4.60134,2470.88,2024-3-31T08:05:40Z
2024-03-31T06:06:04Z,42.805,6.029,13.3046,4.60134,2470.904,2024-3-31T08:08:43Z
2024-03-31T06:09:07Z,42.805,6.029,13.3041,4.60133,2470.88,2024-3-31T08:11:46Z
2024-03-31T06:12:10Z,42.805,6.029,13.3046,4.60134,2470.917,2024-3-31T08:14:49Z
2024-03-31T06:15:13Z,42.805,6.029,13.3049,4.60135,2470.917,2024-3-31T08:17:52Z
2024-03-31T06:18:16Z,42.805,6.029,13.3046,4.60134,2470.927,2024-3-31T08:20:55Z
2024-03-31T06:21:20Z,42.805,6.029,13.3046,4.60135,2470.904,2024-3-31T08:23:58Z
2024-03-31T06:24:23Z,42.805,6.029,13.3045,4.60134,2470.904,2024-3-31T08:27:01Z
2024-03-31T06:27:26Z,42.805,6.029,13.3043,4.60134,2470.88,2024-3-31T08:30:04Z
2024-03-31T06:30:29Z,42.805,6.029,13.3049,4.60134,2470.904,2024-3-31T08:33:08Z
2024-03-31T06:33:32Z,42.805,6.029,13.3046,4.60134,2470.88,2024-3-31T08:36:11Z
2024-03-31T06:36:35Z,42.805,6.029,13.3049,4.60134,2470.871,2024-3-31T08:39:14Z
2024-03-31T06:39:38Z,42.805,6.029,13.3046,4.60135,2470.88,2024-3-31T08:42:17Z
2024-03-31T06:42:41Z,42.805,6.029,13.3051,4.60135,2470.88,2024-3-31T08:45:20Z
2024-03-31T06:45:44Z,42.805,6.029,13.3039,4.60133,2470.917,2024-3-31T08:48:23Z
2024-03-31T06:48:47Z,42.805,6.029,13.3046,4.60134,2470.894,2024-3-31T08:51:26Z
2024-03-31T06:51:50Z,42.805,6.029,13.3046,4.60135,2470.927,2024-3-31T08:54:29Z
2024-03-31T06:54:53Z,42.805,6.029,13.3048,4.60135,2470.927,2024-3-31T08:57:32Z
2024-03-31T06:57:56Z,42.805,6.029,13.3044,4.60134,2470.88,2024-3-31T09:00:35Z
2024-03-31T07:01:00Z,42.805,6.029,13.3046,4.60134,2470.904,2024-3-31T09:03:38Z
2024-03-31T07:04:03Z,42.805,6.029,13.3048,4.60134,2470.894,2024-3-31T09:06:41Z
2024-03-31T07:07:06Z,42.805,6.029,13.3045,4.60135,2470.904,2024-3-31T09:09:45Z
2024-03-31T07:10:09Z,42.805,6.029,13.3048,4.60135,2470.927,2024-3-31T09:12:48Z
2024-03-31T07:13:12Z,42.805,6.029,13.3048,4.60135,2470.927,2024-3-31T09:15:51Z
2024-03-31T07:16:15Z,42.805,6.029,13.3047,4.60135,2470.904,2024-3-31T09:18:54Z
2024-03-31T07:19:18Z,42.805,6.029,13.3046,4.60135,2470.94,2024-3-31T09:21:57Z
2024-03-31T07:22:21Z,42.805,6.029,13.3050,4.60135,2470.904,2024-3-31T09:25:00Z
2024-03-31T07:25:24Z,42.805,6.029,13.3046,4.60135,2470.927,2024-3-31T09:28:03Z
2024-03-31T07:28:27Z,42.805,6.029,13.3048,4.60135,2470.94,2024-3-31T09:31:06Z
2024-03-31T07:31:30Z,42.805,6.029,13.3051,4.60137,2470.904,2024-3-31T09:34:09Z
2024-03-31T07:34:33Z,42.805,6.029,13.3047,4.60137,2470.904,2024-3-31T09:37:12Z
2024-03-31T07:37:37Z,42.805,6.029,13.3048,4.60135,2470.95,2024-3-31T09:40:15Z
2024-03-31T07:40:40Z,42.805,6.029,13.3047,4.60135,2470.904,2024-3-31T09:43:18Z
2024-03-31T07:43:43Z,42.805,6.029,13.3045,4.60135,2470.94,2024-3-31T09:46:21Z
2024-03-31T07:46:46Z,42.805,6.029,13.3052,4.60136,2470.927,2024-3-31T09:49:25Z
2024-03-31T07:49:49Z,42.805,6.029,13.3046,4.60135,2470.917,2024-3-31T09:52:28Z
2024-03-31T07:52:52Z,42.805,6.029,13.3046,4.60135,2470.927,2024-3-31T09:55:31Z
2024-03-31T07:55:55Z,42.805,6.029,13.3044,4.60137,2470.904,2024-3-31T09:58:34Z
2024-03-31T07:58:58Z,42.805,6.029,13.3045,4.60135,2470.95,2024-3-31T10:01:37Z
2024-03-31T08:02:01Z,42.805,6.029,13.3048,4.60135,2470.95,2024-3-31T10:04:40Z
2024-03-31T08:05:04Z,42.805,6.029,13.3048,4.60135,2470.964,2024-3-31T10:07:43Z
2024-03-31T08:08:07Z,42.805,6.029,13.3048,4.60135,2470.927,2024-3-31T10:10:46Z
2024-03-31T08:11:10Z,42.805,6.029,13.3048,4.60135,2470.94,2024-3-31T10:13:49Z
2024-03-31T08:14:14Z,42.805,6.029,13.3047,4.60136,2470.927,2024-3-31T10:16:52Z
2024-03-31T08:17:17Z,42.805,6.029,13.3048,4.60135,2470.973,2024-3-31T10:19:55Z
2024-03-31T08:20:20Z,42.805,6.029,13.3047,4.60137,2470.95,2024-3-31T10:22:59Z
2024-03-31T08:23:23Z,42.805,6.029,13.3045,4.60135,2470.904,2024-3-31T10:26:02Z
2024-03-31T08:26:26Z,42.805,6.029,13.3049,4.60135,2470.927,2024-3-31T10:29:05Z
2024-03-31T08:29:29Z,42.805,6.029,13.3046,4.60135,2470.927,2024-3-31T10:32:08Z
2024-03-31T08:32:32Z,42.805,6.029,13.3048,4.60135,2470.964,2024-3-31T10:35:11Z
2024-03-31T08:35:35Z,42.805,6.029,13.3046,4.60135,2470.95,2024-3-31T10:38:14Z
2024-03-31T08:38:38Z,42.805,6.029,13.3048,4.60135,2470.987,2024-3-31T10:41:17Z
2024-03-31T08:41:41Z,42.805,6.029,13.3049,4.60135,2470.973,2024-3-31T10:44:20Z
2024-03-31T08:44:44Z,42.805,6.029,13.3050,4.60137,2470.964,2024-3-31T10:47:23Z
2024-03-31T08:47:47Z,42.805,6.029,13.3047,4.60135,2470.973,2024-3-31T10:50:26Z
2024-03-31T08:50:51Z,42.805,6.029,13.3045,4.60135,2470.964,2024-3-31T10:53:29Z
2024-03-31T08:53:54Z,42.805,6.029,13.3047,4.60135,2470.95,2024-3-31T10:56:32Z
2024-03-31T08:56:57Z,42.805,6.029,13.3049,4.60136,2470.997,2024-3-31T10:59:36Z
2024-03-31T09:00:00Z,42.805,6.029,13.3046,4.60137,2470.973,2024-3-31T11:02:39Z
2024-03-31T09:03:03Z,42.805,6.029,13.3047,4.60135,2470.997,2024-3-31T11:05:42Z
2024-03-31T09:06:06Z,42.805,6.029,13.3047,4.60137,2471.01,2024-3-31T11:08:45Z
2024-03-31T09:09:09Z,42.805,6.029,13.3053,4.60136,2470.964,2024-3-31T11:11:48Z
2024-03-31T09:12:12Z,42.805,6.029,13.3051,4.60137,2470.973,2024-3-31T11:14:51Z
2024-03-31T09:15:15Z,42.805,6.029,13.3047,4.60137,2470.997,2024-3-31T11:17:54Z
2024-03-31T09:18:18Z,42.805,6.029,13.3048,4.60137,2470.997,2024-3-31T11:20:57Z
2024-03-31T09:21:21Z,42.805,6.029,13.3049,4.60137,2471.01,2024-3-31T11:24:00Z
2024-03-31T09:24:24Z,42.805,6.029,13.3050,4.60136,2470.973,2024-3-31T11:27:03Z
2024-03-31T09:27:28Z,42.805,6.029,13.3046,4.60136,2471.034,2024-3-31T11:30:06Z
2024-03-31T09:30:31Z,42.805,6.029,13.3047,4.60136,2470.973,2024-3-31T11:33:09Z
2024-03-31T09:33:34Z,42.805,6.029,13.3046,4.60137,2470.987,2024-3-31T11:36:13Z
2024-03-31T09:36:37Z,42.805,6.029,13.3046,4.60136,2470.997,2024-3-31T11:39:16Z
2024-03-31T09:39:40Z,42.805,6.029,13.3049,4.60136,2471.02,2024-3-31T11:42:19Z
2024-03-31T09:42:43Z,42.805,6.029,13.3048,4.60136,2470.997,2024-3-31T11:45:22Z
2024-03-31T09:45:46Z,42.805,6.029,13.3046,4.60136,2470.997,2024-3-31T11:48:25Z
2024-03-31T09:48:49Z,42.805,6.029,13.3051,4.60135,2471.01,2024-3-31T11:51:28Z
2024-03-31T09:51:52Z,42.805,6.029,13.3050,4.60136,2470.987,2024-3-31T11:54:31Z
2024-03-31T09:54:55Z,42.805,6.029,13.3046,4.60137,2470.997,2024-3-31T11:57:34Z
2024-03-31T09:57:58Z,42.805,6.029,13.3052,4.60137,2470.987,2024-3-31T12:00:37Z
2024-03-31T10:01:02Z,42.805,6.029,13.3050,4.60137,2470.997,2024-3-31T12:03:40Z
2024-03-31T10:04:05Z,42.805,6.029,13.3050,4.60137,2471.02,2024-3-31T12:06:43Z
2024-03-31T10:07:08Z,42.805,6.029,13.3048,4.60137,2471.01,2024-3-31T12:09:46Z
2024-03-31T10:10:11Z,42.805,6.029,13.3048,4.60137,2470.997,2024-3-31T12:12:50Z
2024-03-31T10:13:14Z,42.805,6.029,13.3048,4.60137,2471.057,2024-3-31T12:15:53Z
2024-03-31T10:16:17Z,42.805,6.029,13.3048,4.60137,2471.01,2024-3-31T12:18:56Z
2024-03-31T10:19:20Z,42.805,6.029,13.3051,4.60137,2470.987,2024-3-31T12:21:59Z
2024-03-31T10:22:23Z,42.805,6.029,13.3049,4.60137,2471.034,2024-3-31T12:25:02Z
2024-03-31T10:25:26Z,42.805,6.029,13.3047,4.60137,2470.964,2024-3-31T12:28:05Z
2024-03-31T10:28:29Z,42.805,6.029,13.3048,4.60136,2471.01,2024-3-31T12:31:08Z
2024-03-31T10:31:32Z,42.805,6.029,13.3049,4.60137,2471.01,2024-3-31T12:34:11Z
2024-03-31T10:34:35Z,42.805,6.029,13.3043,4.60138,2470.997,2024-3-31T12:37:14Z
2024-03-31T10:37:39Z,42.805,6.029,13.3046,4.60136,2471.02,2024-3-31T12:40:17Z
2024-03-31T10:40:42Z,42.805,6.029,13.3047,4.60137,2470.997,2024-3-31T12:43:20Z
2024-03-31T10:43:45Z,42.805,6.029,13.3048,4.60137,2470.997,2024-3-31T12:46:24Z
2024-03-31T10:46:48Z,42.805,6.029,13.3047,4.60137,2470.997,2024-3-31T12:49:27Z
2024-03-31T10:49:51Z,42.805,6.029,13.3046,4.60138,2471.01,2024-3-31T12:52:30Z
2024-03-31T10:52:54Z,42.805,6.029,13.3048,4.60137,2471.01,2024-3-31T12:55:33Z
2024-03-31T10:55:57Z,42.805,6.029,13.3048,4.60137,2470.997,2024-3-31T12:58:36Z
2024-03-31T10:59:00Z,42.805,6.029,13.3048,4.60137,2471.02,2024-3-31T13:01:39Z
2024-03-31T11:02:03Z,42.805,6.029,13.3048,4.60137,2470.987,2024-3-31T13:04:42Z
2024-03-31T11:05:06Z,42.805,6.029,13.3048,4.60137,2471.01,2024-3-31T13:07:45Z
2024-03-31T11:08:09Z,42.805,6.029,13.3051,4.60136,2470.959,2024-3-31T13:10:48Z
2024-03-31T11:11:13Z,42.805,6.029,13.3048,4.60137,2470.997,2024-3-31T13:13:51Z
2024-03-31T11:14:16Z,42.805,6.029,13.3046,4.60137,2470.987,2024-3-31T13:16:54Z
2024-03-31T11:17:19Z,42.805,6.029,13.3046,4.60137,2471.02,2024-3-31T13:19:57Z
2024-03-31T11:20:22Z,42.805,6.029,13.3046,4.60138,2470.987,2024-3-31T13:23:01Z
2024-03-31T11:23:25Z,42.805,6.029,13.3050,4.60138,2470.973,2024-3-31T13:26:04Z
2024-03-31T11:26:28Z,42.805,6.029,13.3049,4.60137,2470.959,2024-3-31T13:29:07Z
2024-03-31T11:29:31Z,42.805,6.029,13.3048,4.60137,2470.987,2024-3-31T13:32:10Z
2024-03-31T11:32:34Z,42.805,6.029,13.3051,4.60137,2471.02,2024-3-31T13:35:13Z
2024-03-31T11:35:37Z,42.805,6.029,13.3050,4.60136,2470.973,2024-3-31T13:38:16Z
2024-03-31T11:38:40Z,42.805,6.029,13.3050,4.60137,2470.997,2024-3-31T13:41:19Z
2024-03-31T11:41:43Z,42.805,6.029,13.3046,4.60135,2470.987,2024-3-31T13:44:22Z
2024-03-31T11:44:46Z,42.805,6.029,13.3052,4.60137,2470.987,2024-3-31T13:47:25Z
2024-03-31T11:47:50Z,42.805,6.029,13.3048,4.60137,2470.95,2024-3-31T13:50:28Z
2024-03-31T11:50:53Z,42.805,6.029,13.3044,4.60137,2470.997,2024-3-31T13:53:31Z
2024-03-31T11:53:56Z,42.805,6.029,13.3050,4.60137,2470.95,2024-3-31T13:56:35Z
2024-03-31T11:56:59Z,42.805,6.029,13.3048,4.60137,2470.927,2024-3-31T13:59:38Z
2024-03-31T12:00:02Z,42.805,6.029,13.3047,4.60137,2470.964,2024-3-31T14:02:41Z
2024-03-31T12:03:05Z,42.805,6.029,13.3049,4.60137,2470.973,2024-3-31T14:05:44Z
2024-03-31T12:06:08Z,42.805,6.029,13.3046,4.60137,2470.987,2024-3-31T14:08:47Z
2024-03-31T12:09:11Z,42.805,6.029,13.3050,4.60137,2470.964,2024-3-31T14:11:50Z
2024-03-31T12:12:14Z,42.805,6.029,13.3049,4.60137,2470.927,2024-3-31T14:14:53Z
2024-03-31T12:15:17Z,42.805,6.029,13.3048,4.60138,2470.95,2024-3-31T14:17:56Z
2024-03-31T12:18:20Z,42.805,6.029,13.3053,4.60136,2470.95,2024-3-31T14:20:59Z
2024-03-31T12:21:23Z,42.805,6.029,13.3051,4.60137,2470.95,2024-3-31T14:24:02Z
2024-03-31T12:24:27Z,42.805,6.029,13.3048,4.60137,2470.973,2024-3-31T14:27:05Z
2024-03-31T12:27:30Z,42.805,6.029,13.3048,4.60137,2470.95,2024-3-31T14:30:08Z
2024-03-31T12:30:33Z,42.805,6.029,13.3047,4.60140,2470.95,2024-3-31T14:33:12Z
2024-03-31T12:33:36Z,42.805,6.029,13.3051,4.60137,2470.95,2024-3-31T14:36:15Z
2024-03-31T12:36:39Z,42.805,6.029,13.3051,4.60137,2470.964,2024-3-31T14:39:18Z
2024-03-31T12:39:42Z,42.805,6.029,13.3051,4.60136,2470.927,2024-3-31T14:42:21Z
2024-03-31T12:42:45Z,42.805,6.029,13.3045,4.60137,2470.987,2024-3-31T14:45:24Z
2024-03-31T12:45:48Z,42.805,6.029,13.3044,4.60137,2470.964,2024-3-31T14:48:27Z
2024-03-31T12:48:51Z,42.805,6.029,13.3046,4.60137,2470.973,2024-3-31T14:51:30Z
2024-03-31T12:51:54Z,42.805,6.029,13.3046,4.60137,2470.904,2024-3-31T14:54:33Z
2024-03-31T12:54:57Z,42.805,6.029,13.3048,4.60135,2470.927,2024-3-31T14:57:36Z
2024-03-31T12:58:00Z,42.805,6.029,13.3053,4.60137,2470.927,2024-3-31T15:00:39Z
2024-03-31T13:01:04Z,42.805,6.029,13.3049,4.60136,2470.94,2024-3-31T15:03:42Z
2024-03-31T13:04:07Z,42.805,6.029,13.3051,4.60139,2470.917,2024-3-31T15:06:46Z
2024-03-31T13:07:10Z,42.805,6.029,13.3049,4.60136,2470.917,2024-3-31T15:09:49Z
2024-03-31T13:10:13Z,42.805,6.029,13.3050,4.60138,2470.927,2024-3-31T15:12:52Z
2024-03-31T13:13:16Z,42.805,6.029,13.3051,4.60137,2470.904,2024-3-31T15:15:55Z
2024-03-31T13:16:19Z,42.805,6.029,13.3053,4.60138,2470.95,2024-3-31T15:18:58Z
2024-03-31T13:19:22Z,42.805,6.029,13.3051,4.60137,2470.94,2024-3-31T15:22:01Z
2024-03-31T13:22:25Z,42.805,6.029,13.3049,4.60137,2470.927,2024-3-31T15:25:04Z
2024-03-31T13:25:28Z,42.805,6.029,13.3052,4.60136,2470.904,2024-3-31T15:28:07Z
2024-03-31T13:28:31Z,42.805,6.029,13.3053,4.60139,2470.904,2024-3-31T15:31:10Z
2024-03-31T13:31:34Z,42.805,6.029,13.3051,4.60140,2470.927,2024-3-31T15:34:13Z
2024-03-31T13:34:38Z,42.805,6.029,13.3048,4.60138,2470.927,2024-3-31T15:37:16Z
2024-03-31T13:37:41Z,42.805,6.029,13.3050,4.60137,2470.917,2024-3-31T15:40:19Z
2024-03-31T13:40:44Z,42.805,6.029,13.3048,4.60137,2470.88,2024-3-31T15:43:23Z
2024-03-31T13:43:47Z,42.805,6.029,13.3051,4.60137,2470.904,2024-3-31T15:46:26Z
2024-03-31T13:46:50Z,42.805,6.029,13.3050,4.60137,2470.94,2024-3-31T15:49:29Z
2024-03-31T13:49:53Z,42.805,6.029,13.3049,4.60137,2470.904,2024-3-31T15:52:32Z
2024-03-31T13:52:56Z,42.805,6.029,13.3048,4.60137,2470.95,2024-3-31T15:55:35Z
2024-03-31T13:55:59Z,42.805,6.029,13.3046,4.60137,2470.927,2024-3-31T15:58:38Z
2024-03-31T13:59:02Z,42.805,6.029,13.3050,4.60137,2470.904,2024-3-31T16:01:41Z
2024-03-31T14:02:05Z,42.805,6.029,13.3048,4.60135,2470.857,2024-3-31T16:04:44Z
2024-03-31T14:05:08Z,42.805,6.029,13.3045,4.60136,2470.904,2024-3-31T16:07:47Z
2024-03-31T14:08:12Z,42.805,6.029,13.3047,4.60136,2470.904,2024-3-31T16:10:50Z
2024-03-31T14:11:15Z,42.805,6.029,13.3048,4.60137,2470.927,2024-3-31T16:13:53Z
2024-03-31T14:14:18Z,42.805,6.029,13.3048,4.60136,2470.88,2024-3-31T16:16:57Z
2024-03-31T14:17:21Z,42.805,6.029,13.3047,4.60135,2470.88,2024-3-31T16:20:00Z
2024-03-31T14:20:24Z,42.805,6.029,13.3046,4.60138,2470.904,2024-3-31T16:23:03Z
2024-03-31T14:23:27Z,42.805,6.029,13.3046,4.60137,2470.904,2024-3-31T16:26:06Z
2024-03-31T14:26:30Z,42.805,6.029,13.3048,4.60135,2470.88,2024-3-31T16:29:09Z
2024-03-31T14:29:33Z,42.805,6.029,13.3047,4.60135,2470.894,2024-3-31T16:32:12Z
2024-03-31T14:32:36Z,42.805,6.029,13.3051,4.60135,2470.88,2024-3-31T16:35:15Z
2024-03-31T14:35:39Z,42.805,6.029,13.3052,4.60137,2470.917,2024-3-31T16:38:18Z
2024-03-31T14:38:42Z,42.805,6.029,13.3049,4.60136,2470.88,2024-3-31T16:41:21Z
2024-03-31T14:41:45Z,42.805,6.029,13.3049,4.60136,2470.904,2024-3-31T16:44:24Z
2024-03-31T14:44:49Z,42.805,6.029,13.3054,4.60137,2470.917,2024-3-31T16:47:27Z
2024-03-31T14:47:52Z,42.805,6.029,13.3046,4.60135,2470.917,2024-3-31T16:50:30Z
2024-03-31T14:50:55Z,42.805,6.029,13.3052,4.60135,2470.904,2024-3-31T16:53:34Z
2024-03-31T14:53:58Z,42.805,6.029,13.3049,4.60137,2470.917,2024-3-31T16:56:37Z
2024-03-31T14:57:01Z,42.805,6.029,13.3049,4.60137,2470.904,2024-3-31T16:59:40Z
2024-03-31T15:00:04Z,42.805,6.029,13.3048,4.60136,2470.88,2024-3-31T17:02:43Z
2024-03-31T15:03:07Z,42.805,6.029,13.3053,4.60136,2470.904,2024-3-31T17:05:46Z
2024-03-31T15:06:10Z,42.805,6.029,13.3050,4.60137,2470.904,2024-3-31T17:08:49Z
2024-03-31T15:09:13Z,42.805,6.029,13.3048,4.60135,2470.857,2024-3-31T17:11:52Z
2024-03-31T15:12:16Z,42.805,6.029,13.3048,4.60137,2470.857,2024-3-31T17:14:55Z
2024-03-31T15:15:19Z,42.805,6.029,13.3049,4.60135,2470.88,2024-3-31T17:17:58Z